星链-30547 (STARLINK-30547 )

导读 | 豆包AI

STARLINK-30547是美国SpaceX星链计划的低轨通信卫星,于2023年10月9日发射,属于星链全球互联网组网的量产卫星。它采用平板设计、氪/氩气霍尔推进器,搭载Ku/Ka波段相控阵通信载荷,具备自主避撞能力,运行在近地轨道,为全球提供低时延宽带互联网服务,寿命末期会主动离轨在大气层烧毁,减少空间碎片威胁。

基本信息
目录编号:
58044
目录名称:
STARLINK-30547
国际标识:
2023-156S
轨道中心:
EARTH
卫星名称:
星链-30547
卫星全名:
星链-30547 (STARLINK-30547 )
卫星状态:
在轨 (已飞行934 天)
发射日期:
2023-10-09 UTC
国别 :
美国 (US)
星等 :
--
轨道信息
数据来源 国际轨道数据 AOE轨道数据
星历时间 2026-04-30T05:48:03+0800
19小时前
查看轨道信息
2026-04-30T07:00:00+0800
18小时前
查看轨道信息
半长轴 6853.37km 6853.369km
偏心率 0.0001024 0.0000689
轨道倾角 53.161° 53.159°
近地点辐角 90.610° 55.502°
升交点赤经 290.301° 290.071°
平近点角 269.502° 219.982°
近地点 474.531km 474.759km
远地点 475.935km 475.705km
周期 94.106分钟 94.106分钟
每日圈数 15.301942 15.301946
详细信息
固有亮度:
5
最大亮度:
0.3
卫星平台:
Starlink v2.0 mini
覆盖范围:
全球
运营商:
太空探索技术公司
运营商所在国:
美国
制造商(研发单位):
太空探索技术公司
制造商所在国:
美国
使用方式:
暂无
卫星简介
星链(Starlink)计划是由太空探索技术公司(SpaceX)提出的一个巨型低轨卫星互联网星座项目,计划在2019年至2024年间在太空搭建由约1.2万颗卫星组成的“星链”网络,其中1584颗将部署在地球上空550千米处的近地轨道,并从2020年开始工作。该卫星仍在工作。
2D轨道图
3D轨道图
轨道高度分析图
轨道倾角分析图
轨道综合分析图
查看轨道综合分析图